Weather in Gulsehir

Turkey     38°44′25″N   34°36′58″E
temp.,
°C
wind,
m/s
gust,
m/s
humid.,
%
clouds,
%
prec.,
mm/h
press.,
hPa
HPBL,
m
3 august, tue
tue300:00+20ene23600 0.0 101173
03:00+17nw12720 0.0 101211
06:00+15nw11820 0.0 101411
09:00+23nne24470 0.0 1014704
12:00+29nne34230 0.0 10121683
15:00+33n45160 0.0 10092238
18:00+31nne45150 0.0 10092270
21:00+24ne33260 0.0 101127
4 august, wed
wed400:00+20nne01410 0.0 101313
03:00+19nw11510 0.0 101411
06:00+17nw11620 0.0 101511
09:00+24nne23370 0.0 1015649
12:00+31nne45190 0.0 10131720
15:00+34n45140 0.0 10102514
18:00+33nne76140 0.0 10092813
21:00+27ne915300 0.0 1012428
5 august, thu
thu500:00+20nne11530 0.0 101414
03:00+18nw11580 0.0 101412
06:00+16wnw11640 0.0 101511
09:00+24ne12390 0.0 1014512
12:00+31nne55200 0.0 10111658
15:00+34nne43150 0.0 10082559
18:00+33n44140 0.0 10062801
21:00+25nne33260 0.0 100829
6 august, fri
fri600:00+21nw01370 0.0 100913
03:00+19nw11470 0.0 100811
06:00+17sw01560 0.0 100811
09:00+26e22320 0.0 1008434
12:00+33nne12160 0.0 10052457
15:00+35nnw35120 0.0 10023676
18:00+31se772067 0.0 1003874
21:00+24s48356 0.0 1005134
7 august, sat
sat700:00+21ese22409 0.0 100522
03:00+21ese2241100 0.0 100416
06:00+20ese1142100 0.0 100514
09:00+27sse122974 0.1 1005371
12:00+32wnw441894 0.0 10042127
15:00+31ne34188 0.0 10031385
18:00+29s7627100 0.0 10061528
21:00+23nw114333 0.4 100826